Hourly Weather Bolshoy On

Today, 30 July, Friday

Time Temperature Precipitation Wind Pressure Humidity
00:00 +12°C° 0 mm 1 mps 670 mmHg 85%
01:00 +12°C° 0 mm 1 mps 670 mmHg 85%
02:00 +12°C° 0 mm 1 mps 670 mmHg 84%
03:00 +12°C° 0 mm 1 mps 670 mmHg 83%
04:00 +12°C° 0 mm 1 mps 670 mmHg 80%
05:00 +12°C° 0 mm 0 mps 671 mmHg 76%
06:00 +13°C° 0 mm 0 mps 671 mmHg 73%
07:00 +16°C° 0 mm 0 mps 671 mmHg 66%
08:00 +20°C° 0 mm 1 mps 671 mmHg 58%
09:00 +22°C° 0 mm 1 mps 672 mmHg 50%
10:00 +23°C° 0 mm 1 mps 672 mmHg 48%
11:00 +24°C° 0 mm 2 mps 672 mmHg 47%
12:00 +25°C° 0 mm 2 mps 672 mmHg 46%
13:00 +21°C° 1.1 mm 2 mps 672 mmHg 61%
14:00 +19°C° 1.1 mm 2 mps 672 mmHg 76%
15:00 +17°C° 1.1 mm 2 mps 672 mmHg 91%
16:00 +16°C° 2.5 mm 1 mps 672 mmHg 93%
17:00 +15°C° 2.5 mm 1 mps 673 mmHg 94%
18:00 +14°C° 0 mm 1 mps 673 mmHg 96%
19:00 +14°C° 2.5 mm 1 mps 674 mmHg 96%
20:00 +14°C° 2.5 mm 1 mps 674 mmHg 97%
21:00 +13°C° 2.5 mm 1 mps 675 mmHg 97%
22:00 +13°C° 0.5 mm 1 mps 675 mmHg 96%
23:00 +13°C° 0.5 mm 1 mps 675 mmHg 95%

Tomorrow, 31 July, Saturday

Time Temperature Precipitation Wind Pressure Humidity
00:00 +12°C° 0.5 mm 1 mps 675 mmHg 94%
01:00 +12°C° 0 mm 1 mps 675 mmHg 94%
02:00 +12°C° 0 mm 1 mps 675 mmHg 93%
03:00 +11°C° 0 mm 1 mps 675 mmHg 93%
04:00 +12°C° 0 mm 1 mps 675 mmHg 92%
05:00 +12°C° 0 mm 1 mps 676 mmHg 91%
06:00 +13°C° 0 mm 1 mps 676 mmHg 90%
07:00 +14°C° 0.1 mm 1 mps 676 mmHg 81%
08:00 +16°C° 0.1 mm 1 mps 676 mmHg 73%
09:00 +19°C° 0.1 mm 1 mps 677 mmHg 64%
10:00 +19°C° 0.1 mm 1 mps 676 mmHg 59%
11:00 +20°C° 0.1 mm 1 mps 676 mmHg 53%
12:00 +20°C° 0.1 mm 2 mps 676 mmHg 48%
13:00 +20°C° 0.1 mm 2 mps 676 mmHg 51%
14:00 +20°C° 0.1 mm 2 mps 676 mmHg 53%
15:00 +20°C° 0.1 mm 2 mps 676 mmHg 55%
16:00 +19°C° 0.1 mm 2 mps 676 mmHg 60%
17:00 +19°C° 0.1 mm 1 mps 676 mmHg 65%
18:00 +19°C° 0.1 mm 1 mps 676 mmHg 70%
19:00 +16°C° 0 mm 1 mps 676 mmHg 77%
20:00 +14°C° 0 mm 1 mps 675 mmHg 83%
21:00 +12°C° 0 mm 1 mps 675 mmHg 90%
22:00 +12°C° 0 mm 1 mps 675 mmHg 91%
23:00 +11°C° 0 mm 1 mps 675 mmHg 91%

Day after tomorrow, 1 August, Sunday

Time Temperature Precipitation Wind Pressure Humidity
00:00 +11°C° 0 mm 1 mps 675 mmHg 92%
01:00 +11°C° 0 mm 1 mps 675 mmHg 92%
02:00 +10°C° 0 mm 1 mps 675 mmHg 92%
03:00 +10°C° 0 mm 1 mps 675 mmHg 92%
04:00 +11°C° 0 mm 1 mps 675 mmHg 90%
05:00 +12°C° 0 mm 1 mps 675 mmHg 87%
06:00 +13°C° 0 mm 1 mps 675 mmHg 84%
07:00 +15°C° 0 mm 1 mps 675 mmHg 74%
08:00 +19°C° 0 mm 1 mps 675 mmHg 64%
09:00 +21°C° 0 mm 1 mps 675 mmHg 53%
10:00 +22°C° 0 mm 1 mps 675 mmHg 49%
11:00 +23°C° 0 mm 2 mps 675 mmHg 44%
12:00 +24°C° 0 mm 2 mps 675 mmHg 40%
13:00 +23°C° 0 mm 2 mps 674 mmHg 43%
14:00 +23°C° 0 mm 2 mps 674 mmHg 46%
15:00 +21°C° 0 mm 2 mps 674 mmHg 49%
16:00 +21°C° 0 mm 2 mps 674 mmHg 52%
17:00 +20°C° 0 mm 2 mps 674 mmHg 54%
18:00 +21°C° 0 mm 1 mps 674 mmHg 56%
19:00 +19°C° 0 mm 1 mps 674 mmHg 64%
20:00 +15°C° 0 mm 1 mps 674 mmHg 72%
21:00 +13°C° 0 mm 1 mps 673 mmHg 79%
22:00 +13°C° 0 mm 1 mps 673 mmHg 80%
23:00 +12°C° 0 mm 1 mps 673 mmHg 81%

2 August, Monday

Time Temperature Precipitation Wind Pressure Humidity
00:00 +12°C° 0 mm 1 mps 673 mmHg 82%
01:00 +12°C° 0 mm 1 mps 673 mmHg 83%
02:00 +11°C° 0 mm 1 mps 673 mmHg 84%
03:00 +11°C° 0 mm 1 mps 672 mmHg 86%
04:00 +12°C° 0 mm 1 mps 673 mmHg 82%
05:00 +13°C° 0 mm 1 mps 673 mmHg 78%
06:00 +14°C° 0 mm 1 mps 674 mmHg 74%
07:00 +18°C° 0 mm 1 mps 674 mmHg 65%
08:00 +20°C° 0 mm 1 mps 674 mmHg 56%
09:00 +22°C° 0 mm 1 mps 674 mmHg 47%
10:00 +23°C° 0 mm 1 mps 674 mmHg 43%
11:00 +24°C° 0 mm 1 mps 674 mmHg 40%
12:00 +25°C° 0 mm 1 mps 674 mmHg 36%
13:00 +25°C° 0 mm 1 mps 674 mmHg 35%
14:00 +25°C° 0 mm 1 mps 674 mmHg 34%
15:00 +26°C° 0 mm 2 mps 674 mmHg 33%
16:00 +25°C° 0 mm 1 mps 673 mmHg 39%
17:00 +24°C° 0 mm 1 mps 673 mmHg 45%
18:00 +23°C° 0 mm 1 mps 673 mmHg 51%
19:00 +21°C° 0 mm 1 mps 673 mmHg 60%
20:00 +18°C° 0 mm 1 mps 673 mmHg 68%
21:00 +14°C° 0 mm 1 mps 673 mmHg 77%
22:00 +14°C° 0 mm 1 mps 673 mmHg 77%
23:00 +14°C° 0 mm 1 mps 673 mmHg 76%

3 August, Tuesday

Time Temperature Precipitation Wind Pressure Humidity
00:00 +13°C° 0 mm 1 mps 673 mmHg 76%
01:00 +13°C° 0 mm 1 mps 673 mmHg 76%
02:00 +13°C° 0 mm 2 mps 672 mmHg 75%
03:00 +13°C° 0 mm 2 mps 672 mmHg 75%
04:00 +14°C° 0 mm 1 mps 672 mmHg 73%
05:00 +15°C° 0 mm 1 mps 673 mmHg 70%
06:00 +16°C° 0 mm 1 mps 673 mmHg 68%
07:00 +20°C° 0 mm 1 mps 673 mmHg 60%
08:00 +22°C° 0 mm 1 mps 673 mmHg 52%
09:00 +25°C° 0 mm 1 mps 674 mmHg 44%
10:00 +25°C° 0 mm 1 mps 674 mmHg 41%
11:00 +26°C° 0 mm 1 mps 674 mmHg 39%
12:00 +27°C° 0 mm 2 mps 674 mmHg 36%
13:00 +27°C° 0 mm 2 mps 673 mmHg 39%
14:00 +26°C° 0 mm 2 mps 673 mmHg 41%
15:00 +26°C° 0 mm 3 mps 673 mmHg 43%
16:00 +25°C° 0.2 mm 2 mps 673 mmHg 53%
17:00 +23°C° 0.2 mm 2 mps 673 mmHg 62%
18:00 +22°C° 0.2 mm 1 mps 673 mmHg 71%
19:00 +20°C° 0.7 mm 1 mps 673 mmHg 78%
20:00 +19°C° 0.7 mm 1 mps 673 mmHg 85%
21:00 +16°C° 0.7 mm 1 mps 673 mmHg 91%
22:00 +16°C° 0.7 mm 1 mps 673 mmHg 93%
23:00 +15°C° 0.7 mm 1 mps 673 mmHg 94%

4 August, Wednesday

Time Temperature Precipitation Wind Pressure Humidity
00:00 +15°C° 0.7 mm 1 mps 673 mmHg 96%
01:00 +15°C° 0.6 mm 1 mps 673 mmHg 96%
02:00 +14°C° 0.6 mm 1 mps 673 mmHg 96%
03:00 +14°C° 0.6 mm 1 mps 673 mmHg 96%
04:00 +14°C° 0 mm 1 mps 673 mmHg 96%
05:00 +15°C° 0 mm 1 mps 673 mmHg 95%
06:00 +16°C° 0 mm 1 mps 673 mmHg 94%
07:00 +18°C° 0.3 mm 1 mps 673 mmHg 90%
08:00 +19°C° 0.3 mm 1 mps 673 mmHg 86%
09:00 +20°C° 0.3 mm 1 mps 673 mmHg 82%
10:00 +20°C° 0.5 mm 1 mps 673 mmHg 75%
11:00 +21°C° 0.5 mm 1 mps 673 mmHg 69%
12:00 +21°C° 0.5 mm 2 mps 672 mmHg 63%
13:00 +20°C° 1.1 mm 2 mps 672 mmHg 72%
14:00 +19°C° 1.1 mm 1 mps 672 mmHg 82%
15:00 +18°C° 1.1 mm 1 mps 672 mmHg 92%
16:00 +16°C° 2 mm 1 mps 672 mmHg 94%
17:00 +15°C° 2 mm 1 mps 672 mmHg 95%
18:00 +15°C° 2 mm 1 mps 672 mmHg 96%
19:00 +14°C° 0.1 mm 1 mps 672 mmHg 96%
20:00 +14°C° 0.1 mm 1 mps 672 mmHg 96%
21:00 +13°C° 0.1 mm 1 mps 672 mmHg 96%
22:00 +13°C° 0 mm 1 mps 672 mmHg 96%
23:00 +12°C° 0 mm 1 mps 672 mmHg 96%
Show more

We Need Your Consent

Meteoprog and our Service Providers may store and access personal data such as cookies, device identifiers or other similar technologies on your device and process such data to personalise content and ads, as well as provide social media features and to analyse the traffic.

  • Store and/or access information on your device

    Cookies, device identifiers or other information can be stored or accessed on your device for the purposes indicated above.

  • Personalised ads and content, ad and content measurement, audience insights, and products development

    Ads and content can be personalised based on a profile. More data can be added to better personalise ads and content. Ad and content performance can be measured. Insights about the audience who saw the ads and content can be derived. Such data can be used to develop or improve user’s experience, systems and software.

By clicking ‘I Agree’ you will allow the use of indicated cookies, device identifiers, web beacons or other similar technologies. Your settings can be changed in the browser on your device.

For certain purposes, legitimate interests may be relied on, rather than consent. You can read more about this in our Privacy and Cookie Policy.